This is the latest recevied weather packets stored in our database for station/object N1ICS-1. If no packets are shown the sender has not sent any weather packets the latest 10 day(s).
| Time | Temp. | Humidity | Pressure | Rain* | Wind** | Luminosity | Snow |
|---|---|---|---|---|---|---|---|
| 1777720502 | 0° C | 91% | 1019.6 hPa | 0 mm | - | 32 W/m² | - |
| 1777720202 | 0° C | 90% | 1019.6 hPa | 0 mm | - | 29 W/m² | - |
| 1777719902 | 0° C | 90% | 1019.5 hPa | 0 mm | - | 25 W/m² | - |
| 1777719602 | 0° C | 90% | 1019.4 hPa | 0 mm | - | 23 W/m² | - |
| 1777719302 | -0.56° C | 90% | 1019.4 hPa | 0 mm | - | 18 W/m² | - |
| 1777719002 | -0.56° C | 90% | 1019.5 hPa | 0 mm | - | 14 W/m² | - |
| 1777718702 | -0.56° C | 90% | 1019.4 hPa | 0 mm | - | 10 W/m² | - |
| 1777718402 | -0.56° C | 90% | 1019.3 hPa | 0 mm | - | 7 W/m² | - |
| 1777718102 | -0.56° C | 89% | 1019.3 hPa | 0 mm | - | 4 W/m² | - |
| 1777717801 | 0° C | 89% | 1019.2 hPa | 0 mm | - | 2 W/m² | - |
| 1777717502 | 0° C | 90% | 1019.3 hPa | 0 mm | - | 1 W/m² | - |
| 1777717202 | -0.56° C | 89% | 1019.3 hPa | 0 mm | - | 0 W/m² | - |
| 1777716902 | 0° C | 89% | 1019.4 hPa | 0 mm | - | 0 W/m² | - |
| 1777716602 | 0° C | 89% | 1019.4 hPa | 0 mm | - | 0 W/m² | - |
| 1777716302 | 0° C | 89% | 1019.5 hPa | 0 mm | - | 0 W/m² | - |
| 1777716002 | 0° C | 89% | 1019.3 hPa | 0 mm | - | 0 W/m² | - |
| 1777715702 | 0° C | 89% | 1019.3 hPa | 0 mm | - | 0 W/m² | - |
| 1777715402 | 0° C | 89% | 1019.1 hPa | 0 mm | - | 0 W/m² | - |
| 1777715102 | 0° C | 88% | 1019.3 hPa | 0 mm | - | 0 W/m² | - |
| 1777714802 | 0° C | 88% | 1019.2 hPa | 0 mm | - | 0 W/m² | - |
| 1777714502 | 0° C | 88% | 1018.9 hPa | 0 mm | - | 0 W/m² | - |
| 1777714201 | 0° C | 88% | 1019 hPa | 0 mm | - | 0 W/m² | - |
| 1777713902 | 0° C | 88% | 1019.2 hPa | 0 mm | - | 0 W/m² | - |
| 1777713602 | 0° C | 88% | 1019 hPa | 0 mm | - | 0 W/m² | - |
| 1777713302 | 0° C | 87% | 1019 hPa | 0 mm | - | 0 W/m² | - |
* Rain latest hour (hover to see other rain measurements)
** Current wind speed in m/s (hover to see current wind gust speed)